Location: Ferma
(41.9500°N, 44.5167°E)
Time: 19:09:23
(UTC+00:00)

Radarsat Rocket - Pass Details

Date: 23 May 2022
Orbit: 933 x 1492 km, 100.6° (Epoch: 29 June)

Event Time Altitude Azimuth Distance (km) Brightness Sun altitude
Rises 17:06:28 0° 228° (SW) 4,584 7.7 -7.6°
Reaches altitude 10° 17:12:34 10° 261° (W) 3,638 7.6 -8.5°
Maximum altitude 17:14:39 11° 276° (W) 3,560 7.9 -8.8°
Drops below altitude 10° 17:16:44 10° 290° (WNW) 3,631 8.3 -9.1°
Sets 17:22:53 0° 324° (NW) 4,555 9.3 -10.0°
